When you browse on this site, cookies collect data to enhance your experience and personalize the content and advertising you see.
Visit our Privacy Policy to learn more. By continuing to use the site, you agree to this use of cookies and data.
  • în România
  • Lista ţărilor
  • Pe 7 zile
  • Temperatura apei
  • Hartă satelitară
  • Meteo pe hartă
  • Widget-uri
  • user-avatar
    Intrare

    Meteo pe oră la Zherotino

    Astăzi, 17 Ianuarie, Joi

    Timp Temperatura Precipitaţii Vânt Presiune Umiditate
    00:00 -8°C° 0 mm 3 m/s 734 mmHg 91%
    01:00 -9°C° 0 mm 3 m/s 734 mmHg 91%
    02:00 -9°C° 0 mm 2 m/s 734 mmHg 92%
    03:00 -10°C° 0 mm 2 m/s 734 mmHg 93%
    04:00 -12°C° 0 mm 2 m/s 734 mmHg 93%
    05:00 -13°C° 0 mm 3 m/s 734 mmHg 94%
    06:00 -13°C° 0 mm 3 m/s 733 mmHg 93%
    07:00 -14°C° 0 mm 4 m/s 733 mmHg 93%
    08:00 -12°C° 0 mm 4 m/s 732 mmHg 93%
    09:00 -11°C° 0.3 mm 5 m/s 732 mmHg 92%
    10:00 -10°C° 0.3 mm 6 m/s 731 mmHg 90%
    11:00 -8°C° 0.3 mm 7 m/s 731 mmHg 89%
    12:00 -7°C° 0.4 mm 7 m/s 730 mmHg 88%
    13:00 -6°C° 0.4 mm 7 m/s 729 mmHg 87%
    14:00 -6°C° 0 mm 7 m/s 728 mmHg 88%
    15:00 -4°C° 0.2 mm 7 m/s 728 mmHg 87%
    16:00 -4°C° 0.2 mm 7 m/s 728 mmHg 86%
    17:00 -3°C° 0.2 mm 7 m/s 727 mmHg 86%
    18:00 -3°C° 0.2 mm 7 m/s 727 mmHg 86%
    19:00 -2°C° 0.2 mm 7 m/s 726 mmHg 86%
    20:00 -1°C° 0.2 mm 7 m/s 726 mmHg 86%
    21:00 -1°C° 0 mm 6 m/s 726 mmHg 86%
    22:00 -1°C° 0 mm 6 m/s 726 mmHg 86%
    23:00 -1°C° 0 mm 6 m/s 726 mmHg 86%

    Mâine, 18 Ianuarie, Vineri

    Timp Temperatura Precipitaţii Vânt Presiune Umiditate
    00:00 -1°C° 0 mm 6 m/s 727 mmHg 86%
    01:00 -1°C° 0 mm 6 m/s 727 mmHg 86%
    02:00 -2°C° 0 mm 6 m/s 728 mmHg 85%
    03:00 -1°C° 0.1 mm 5 m/s 728 mmHg 86%
    04:00 -1°C° 0.1 mm 5 m/s 729 mmHg 86%
    05:00 -1°C° 0.1 mm 5 m/s 729 mmHg 86%
    06:00 -1°C° 0 mm 5 m/s 730 mmHg 86%
    07:00 -2°C° 0 mm 5 m/s 730 mmHg 87%
    08:00 -2°C° 0 mm 4 m/s 731 mmHg 88%
    09:00 -2°C° 0.1 mm 4 m/s 732 mmHg 88%
    10:00 -3°C° 0.1 mm 4 m/s 732 mmHg 88%
    11:00 -2°C° 0.1 mm 3 m/s 733 mmHg 89%
    12:00 -2°C° 0.1 mm 3 m/s 733 mmHg 90%
    13:00 -2°C° 0.1 mm 2 m/s 733 mmHg 91%
    14:00 -3°C° 0.1 mm 2 m/s 733 mmHg 92%
    15:00 -3°C° 0.4 mm 2 m/s 733 mmHg 93%
    16:00 -4°C° 0.4 mm 2 m/s 733 mmHg 95%
    17:00 -4°C° 0.4 mm 2 m/s 733 mmHg 96%
    18:00 -5°C° 1.2 mm 2 m/s 732 mmHg 96%
    19:00 -7°C° 1.2 mm 3 m/s 732 mmHg 95%
    20:00 -9°C° 1.2 mm 4 m/s 732 mmHg 95%
    21:00 -8°C° 0.4 mm 3 m/s 732 mmHg 94%
    22:00 -9°C° 0.4 mm 3 m/s 733 mmHg 93%
    23:00 -8°C° 0.4 mm 2 m/s 733 mmHg 93%

    Poimâine, 19 Ianuarie, Sâmbătă

    Timp Temperatura Precipitaţii Vânt Presiune Umiditate
    00:00 -9°C° 0 mm 2 m/s 734 mmHg 92%
    01:00 -12°C° 0 mm 3 m/s 735 mmHg 92%
    02:00 -13°C° 0 mm 3 m/s 736 mmHg 92%
    03:00 -12°C° 0 mm 3 m/s 736 mmHg 93%
    04:00 -12°C° 0 mm 3 m/s 737 mmHg 93%
    05:00 -12°C° 0 mm 3 m/s 737 mmHg 94%
    06:00 -12°C° 0 mm 3 m/s 737 mmHg 92%
    07:00 -11°C° 0 mm 4 m/s 738 mmHg 91%
    08:00 -11°C° 0 mm 4 m/s 738 mmHg 90%
    09:00 -10°C° 0 mm 4 m/s 738 mmHg 89%
    10:00 -9°C° 0 mm 4 m/s 739 mmHg 87%
    11:00 -8°C° 0 mm 5 m/s 739 mmHg 86%
    12:00 -8°C° 0 mm 5 m/s 739 mmHg 86%
    13:00 -8°C° 0 mm 5 m/s 739 mmHg 86%
    14:00 -8°C° 0 mm 5 m/s 739 mmHg 86%
    15:00 -8°C° 0.1 mm 4 m/s 740 mmHg 87%
    16:00 -8°C° 0.1 mm 4 m/s 740 mmHg 87%
    17:00 -8°C° 0.1 mm 4 m/s 740 mmHg 88%
    18:00 -8°C° 0.1 mm 4 m/s 741 mmHg 89%
    19:00 -7°C° 0.1 mm 3 m/s 741 mmHg 89%
    20:00 -7°C° 0.1 mm 3 m/s 741 mmHg 90%
    21:00 -8°C° 0 mm 3 m/s 742 mmHg 91%
    22:00 -8°C° 0 mm 3 m/s 742 mmHg 92%
    23:00 -9°C° 0 mm 3 m/s 742 mmHg 93%

    20 Ianuarie, Duminică

    Timp Temperatura Precipitaţii Vânt Presiune Umiditate
    00:00 -8°C° 0 mm 3 m/s 742 mmHg 91%
    01:00 -9°C° 0 mm 4 m/s 742 mmHg 90%
    02:00 -9°C° 0 mm 4 m/s 743 mmHg 88%
    03:00 -9°C° 0 mm 4 m/s 742 mmHg 88%
    04:00 -11°C° 0 mm 5 m/s 742 mmHg 89%
    05:00 -11°C° 0 mm 5 m/s 741 mmHg 89%
    06:00 -10°C° 0.1 mm 5 m/s 741 mmHg 88%
    07:00 -10°C° 0.1 mm 5 m/s 741 mmHg 87%
    08:00 -8°C° 0.1 mm 5 m/s 740 mmHg 87%
    09:00 -7°C° 0.1 mm 5 m/s 740 mmHg 87%
    10:00 -6°C° 0.1 mm 6 m/s 740 mmHg 87%
    11:00 -5°C° 0.1 mm 6 m/s 740 mmHg 86%
    12:00 -5°C° 0.4 mm 5 m/s 740 mmHg 88%
    13:00 -5°C° 0.4 mm 4 m/s 739 mmHg 89%
    14:00 -5°C° 0.4 mm 3 m/s 739 mmHg 91%
    15:00 -6°C° 0.3 mm 3 m/s 739 mmHg 91%
    16:00 -7°C° 0.3 mm 3 m/s 739 mmHg 91%
    17:00 -7°C° 0.3 mm 2 m/s 739 mmHg 91%
    18:00 -7°C° 0 mm 2 m/s 740 mmHg 92%
    19:00 -7°C° 0 mm 2 m/s 740 mmHg 92%
    20:00 -8°C° 0 mm 2 m/s 740 mmHg 93%
    21:00 -9°C° 0 mm 2 m/s 740 mmHg 94%
    22:00 -10°C° 0 mm 2 m/s 741 mmHg 94%
    23:00 -10°C° 0 mm 2 m/s 741 mmHg 95%

    21 Ianuarie, Luni

    Timp Temperatura Precipitaţii Vânt Presiune Umiditate
    00:00 -12°C° 0 mm 2 m/s 741 mmHg 95%
    01:00 -13°C° 0 mm 2 m/s 741 mmHg 96%
    02:00 -14°C° 0 mm 2 m/s 741 mmHg 96%
    03:00 -15°C° 0 mm 2 m/s 741 mmHg 96%
    04:00 -16°C° 0 mm 2 m/s 741 mmHg 96%
    05:00 -17°C° 0 mm 2 m/s 741 mmHg 96%
    06:00 -17°C° 0 mm 2 m/s 741 mmHg 96%
    07:00 -17°C° 0 mm 2 m/s 741 mmHg 96%
    08:00 -18°C° 0 mm 2 m/s 741 mmHg 97%
    09:00 -16°C° 0 mm 2 m/s 741 mmHg 96%
    10:00 -15°C° 0 mm 2 m/s 742 mmHg 95%
    11:00 -14°C° 0 mm 2 m/s 742 mmHg 94%
    12:00 -13°C° 0 mm 2 m/s 742 mmHg 92%
    13:00 -13°C° 0 mm 2 m/s 742 mmHg 90%
    14:00 -12°C° 0 mm 2 m/s 742 mmHg 89%
    15:00 -13°C° 0 mm 2 m/s 743 mmHg 90%
    16:00 -14°C° 0 mm 2 m/s 743 mmHg 91%
    17:00 -16°C° 0 mm 2 m/s 743 mmHg 92%
    18:00 -17°C° 0 mm 2 m/s 744 mmHg 93%
    19:00 -18°C° 0 mm 2 m/s 744 mmHg 94%
    20:00 -19°C° 0 mm 2 m/s 744 mmHg 95%
    21:00 -19°C° 0 mm 2 m/s 744 mmHg 95%
    22:00 -19°C° 0 mm 2 m/s 744 mmHg 96%
    23:00 -20°C° 0 mm 2 m/s 744 mmHg 96%

    22 Ianuarie, Marţi

    Timp Temperatura Precipitaţii Vânt Presiune Umiditate
    00:00 -20°C° 0 mm 2 m/s 745 mmHg 96%
    01:00 -20°C° 0 mm 2 m/s 745 mmHg 96%
    02:00 -20°C° 0 mm 2 m/s 745 mmHg 96%
    03:00 -20°C° 0 mm 2 m/s 745 mmHg 96%
    04:00 -20°C° 0 mm 2 m/s 745 mmHg 96%
    05:00 -20°C° 0 mm 2 m/s 745 mmHg 96%
    06:00 -20°C° 0 mm 2 m/s 746 mmHg 96%
    07:00 -20°C° 0 mm 2 m/s 746 mmHg 96%
    08:00 -20°C° 0 mm 2 m/s 746 mmHg 96%
    09:00 -19°C° 0 mm 2 m/s 747 mmHg 95%
    10:00 -18°C° 0 mm 2 m/s 747 mmHg 94%
    11:00 -17°C° 0 mm 2 m/s 747 mmHg 93%
    12:00 -17°C° 0 mm 2 m/s 747 mmHg 93%
    13:00 -16°C° 0 mm 2 m/s 747 mmHg 93%
    14:00 -16°C° 0 mm 2 m/s 747 mmHg 93%
    15:00 -17°C° 0 mm 2 m/s 748 mmHg 94%
    16:00 -19°C° 0 mm 2 m/s 748 mmHg 95%
    17:00 -20°C° 0 mm 2 m/s 748 mmHg 96%
    18:00 -20°C° 0 mm 2 m/s 748 mmHg 97%
    19:00 -21°C° 0 mm 2 m/s 748 mmHg 97%
    20:00 -21°C° 0 mm 2 m/s 748 mmHg 98%
    21:00 -21°C° 0 mm 2 m/s 748 mmHg 98%
    22:00 -21°C° 0 mm 2 m/s 749 mmHg 98%
    23:00 -23°C° 0 mm 2 m/s 749 mmHg 98%
    Arată mai mult